Home   Weather   East London   Past weeks

Flag for South Africa Past Weather in East London, South Africa — Yesterday and Last 2 Weeks

64 °F

Passing clouds.

Feels Like: 64 °F
Forecast: 60 / 68 °F
Wind: 7 mph from Northeast

Location: East London

Current Time: Oct 24, 2016 at 12:16:53 AM

Latest Report: Oct 23, 2016 at 9:00 PM

Visibility: N/A

Pressure: 30.01 "Hg

Humidity: 88%

Dew Point: 61 °F

Location of East LondonLocation

Past Weather in East London — Graph


East London Temperature Yesterday

Maximum temperature yesterday: 68 °F (at 11:00 AM)
Minimum temperature yesterday: 61 °F (at 5:00 AM)
Average temperature yesterday: 65 °F

High & Low Weather Summary for the Past Weeks

High79 °F (Oct 21, 9:00 AM)94% (Oct 15, 5:00 AM)30.39 "Hg (Oct 15, 5:00 AM)
Low52 °F (Oct 13, 5:00 AM)36% (Oct 10, 10:00 AM)29.71 "Hg (Oct 15, 4:00 PM)
Average66 °F71%30.04 "Hg
* Reported Oct 9 5:00 AM — Oct 23 9:00 PM, East London, Weather by CustomWeather, © 2016

Note: Actual official high and low records may vary slightly from our data, if they occured in-between our weather recording intervals... More about our weather records


East London Weather History for the Previous 24 Hours

Scroll right to see more
Time TempWeatherWind HumidityBarometerVisibility
9:00 PM
Sun, Oct 23
64 °FPassing clouds.7 mph88%30.01 "HgN/A
8:00 PM64 °FPartly cloudy.7 mph88%30.01 "HgN/A
7:00 PM64 °FPassing clouds.7 mph83%29.98 "HgN/A
6:00 PM66 °FPartly sunny.8 mph78%29.98 "HgN/A
5:00 PM66 °FBroken clouds.9 mph83%29.98 "HgN/A
4:00 PM66 °FBroken clouds.12 mph83%29.98 "HgN/A
3:00 PM66 °FPartly sunny.8 mph83%29.98 "HgN/A
2:00 PM66 °FBroken clouds.5 mph78%30.01 "HgN/A
1:00 PM66 °FPartly sunny.3 mph68%30.04 "HgN/A
12:00 PM66 °FPartly sunny.6 mph64%30.04 "HgN/A
11:00 AM68 °FScattered clouds.7 mph64%30.07 "HgN/A
10:00 AM66 °FScattered clouds.8 mph64%30.07 "HgN/A
9:00 AM66 °FScattered clouds.12 mph68%30.09 "HgN/A
7:00 AM61 °FScattered clouds.8 mph83%30.09 "HgN/A
6:00 AM61 °FScattered clouds.10 mph83%30.07 "HgN/A
5:00 AM61 °FPartly cloudy.12 mph77%30.07 "HgN/A
Weather by CustomWeather, © 2016

See weather overviewHow to use our weather pages